Location: Ellerstadt
(49.4644°N, 8.2615°E)
Time: 19:08:29
(UTC+00:00)

Vanguard 1 - Pass Details

Date: 17 June 2021
Orbit: 651 x 3831 km, 34.2° (Epoch: 29 July)

Event Time Altitude Azimuth Distance (km) Brightness Sun altitude
Rises 21:05:51 0° 229° (SW) 7,964 14.6 -10.6°
Reaches altitude 10° 21:11:58 10° 223° (SW) 6,893 14.2 -11.1°
Maximum altitude 21:31:18 40° 165° (SSE) 4,041 12.7 -12.6°
Drops below altitude 10° 21:44:22 10° 102° (ESE) 4,766 13.2 -13.6°
Sets 21:47:39 0° 95° (E) 5,394 13.6 -13.8°
